GW3985 Weather Reports


time (UTC)temp
F
wind
direction
speed
knots
gust
knots
rain 1hr
in
rain 24hr
in
rain mn
in
humidity
%
barometer
mb
20260905210016 91 156 0.0 0.9 0.00 0.00 0.00 26 1023.2
20260905205036 92 329 0.0 1.7 0.00 0.00 0.00 26 1023.3
20260905204037 92 137 0.0 2.6 0.00 0.00 0.00 26 1023.4
20260905203015 93 122 0.9 3.5 0.00 0.00 0.00 26 1023.6
20260905202015 92 105 0.9 2.6 0.00 0.00 0.00 26 1023.7
20260905201015 91 186 0.9 1.7 0.00 0.00 0.00 25 1023.7
20260905200036 92 105 0.9 2.6 0.00 0.00 0.00 26 1023.8
20260905195016 92 211 0.0 1.7 0.00 0.00 0.00 26 1024.0
20260905194017 91 50 0.9 3.5 0.00 0.00 0.00 26 1024.1
20260905193017 91 102 0.9 1.7 0.00 0.00 0.00 26 1024.1
20260905192015 90 250 0.0 1.7 0.00 0.00 0.00 27 1024.2
20260905191016 90 356 0.0 3.5 0.00 0.00 0.00 28 1024.3
20260905190016 89 327 0.9 2.6 0.00 0.00 0.00 28 1024.3
20260905185016 88 270 0.0 0.9 0.00 0.00 0.00 29 1024.5
20260905184016 88 280 0.9 2.6 0.00 0.00 0.00 29 1024.5
20260905183017 87 273 0.9 2.6 0.00 0.00 0.00 30 1024.7
20260905182017 86 326 0.9 2.6 0.00 0.00 0.00 31 1024.8
20260905181015 85 291 0.0 2.6 0.00 0.00 0.00 31 1025.0
20260905180015 85 245 0.0 2.6 0.00 0.00 0.00 32 1025.1
20260905175015 85 309 0.9 2.6 0.00 0.00 0.00 33 1025.2
20260905174036 83 114 0.0 0.9 0.00 0.00 0.00 33 1025.2
20260905173036 82 278 0.0 0.9 0.00 0.00 0.00 35 1025.3
20260905172017 83 308 0.0 1.7 0.00 0.00 0.00 34 1025.2
20260905171014 82 276 0.0 0.9 0.00 0.00 0.00 35 1025.1
20260905170015 82 263 0.0 0.9 0.00 0.00 0.00 36 1025.0
20260905165015 80 139 0.0 0.9 0.00 0.00 0.00 39 1025.1
20260905164016 79 0.0 0.0 0.00 0.00 0.00 41 1025.1
20260905163016 79 0.0 0.0 0.00 0.00 0.00 39 1025.1
20260905162017 78 0.0 0.0 0.00 0.00 0.00 42 1025.0
20260905161017 77 0.0 0.0 0.00 0.00 0.00 42 1024.9
20260905160015 77 0.0 0.0 0.00 0.00 0.00 42 1024.8
20260905155015 76 0.0 0.0 0.00 0.00 0.00 43 1024.8
20260905154015 75 0.0 0.0 0.00 0.00 0.00 44 1024.8
20260905153016 75 0.0 0.0 0.00 0.00 0.00 46 1024.9
20260905152016 74 287 0.0 0.9 0.00 0.00 0.00 48 1024.9
20260905151016 73 0.0 0.0 0.00 0.00 0.00 50 1024.9
20260905150017 72 135 0.0 0.9 0.00 0.00 0.00 52 1025.0
20260905145015 71 133 0.0 0.9 0.00 0.00 0.00 53 1025.0
20260905144035 70 131 0.0 0.9 0.00 0.00 0.00 55 1025.0
20260905143015 69 131 0.0 0.9 0.00 0.00 0.00 56 1024.9
20260905142016 68 129 0.0 0.9 0.00 0.00 0.00 58 1024.8
20260905141016 67 167 0.0 0.9 0.00 0.00 0.00 60 1024.8
20260905140037 66 148 0.0 0.9 0.00 0.00 0.00 61 1024.7
20260905135057 65 139 0.0 1.7 0.00 0.00 0.00 63 1024.6
20260905134035 65 0.0 0.0 0.00 0.00 0.00 65 1024.5
20260905133015 64 136 0.0 0.9 0.00 0.00 0.00 66 1024.5
20260905132016 63 136 0.0 1.7 0.00 0.00 0.00 69 1024.5
20260905131016 62 139 0.0 0.9 0.00 0.00 0.00 70 1024.4
20260905130016 62 0.0 0.0 0.00 0.00 0.00 70 1024.2
20260905125017 62 139 0.0 0.9 0.00 0.00 0.00 70 1024.0
20260905124017 62 139 0.0 0.9 0.00 0.00 0.00 71 1023.8
20260905123035 62 139 0.0 1.7 0.00 0.00 0.00 72 1023.7
20260905122017 62 140 0.9 2.6 0.00 0.00 0.00 73 1023.7
20260905121016 61 135 0.0 0.9 0.00 0.00 0.00 75 1023.7
20260905120016 62 0.0 0.0 0.00 0.00 0.00 74 1023.7
20260905115016 63 0.0 0.0 0.00 0.00 0.00 73 1023.7
20260905114037 64 135 0.0 0.9 0.00 0.00 0.00 71 1023.5
20260905113015 64 0.0 0.0 0.00 0.00 0.00 68 1023.5
20260905112015 65 139 0.9 3.5 0.00 0.00 0.00 68 1023.5
20260905111016 65 142 1.7 4.3 0.00 0.00 0.00 67 1023.5
20260905110036 65 142 1.7 5.2 0.00 0.00 0.00 66 1023.4
20260905105016 65 141 0.9 3.5 0.00 0.00 0.00 66 1023.3
20260905104037 66 146 0.9 1.7 0.00 0.00 0.00 66 1023.3
20260905103017 66 143 0.9 1.7 0.00 0.00 0.00 65 1023.3
20260905102035 66 149 0.0 1.7 0.00 0.00 0.00 64 1023.3
20260905101035 67 257 0.0 0.9 0.00 0.00 0.00 63 1023.3
20260905100016 68 148 0.9 3.5 0.00 0.00 0.00 63 1023.2
20260905095016 68 140 0.9 2.6 0.00 0.00 0.00 62 1023.2
20260905094037 68 143 0.9 3.5 0.00 0.00 0.00 62 1023.2
20260905093016 68 140 0.9 4.3 0.00 0.00 0.00 61 1023.2
20260905092017 68 141 0.9 2.6 0.00 0.00 0.00 60 1023.1
20260905091035 69 142 0.9 3.5 0.00 0.00 0.00 60 1023.1
20260905090015 69 142 1.7 4.3 0.00 0.00 0.00 60 1023.1
20260905085015 69 136 0.9 3.5 0.00 0.00 0.00 60 1023.2
20260905084016 69 140 1.7 3.5 0.00 0.00 0.00 59 1023.2
20260905083037 69 139 0.9 3.5 0.00 0.00 0.00 59 1023.2
20260905082017 69 143 1.7 3.5 0.00 0.00 0.00 59 1023.2
20260905081017 69 141 0.9 3.5 0.00 0.00 0.00 58 1023.2
20260905080015 69 0.0 0.0 0.00 0.00 0.00 58 1023.2
20260905075015 70 145 0.9 3.5 0.00 0.00 0.00 58 1023.1
20260905074036 70 144 1.7 6.1 0.00 0.00 0.00 58 1023.1
20260905073016 69 142 0.0 2.6 0.00 0.00 0.00 58 1023.2
20260905072016 70 141 0.0 0.9 0.00 0.00 0.00 58 1023.3
20260905071017 70 137 0.9 3.5 0.00 0.00 0.00 58 1023.2
20260905070015 70 143 0.9 3.5 0.00 0.00 0.00 57 1023.3
20260905065015 70 145 0.0 1.7 0.00 0.00 0.00 56 1023.3
20260905064016 70 139 0.0 0.9 0.00 0.00 0.00 56 1023.4
20260905063016 70 144 0.9 3.5 0.00 0.00 0.00 56 1023.4
20260905062016 70 141 0.0 1.7 0.00 0.00 0.00 57 1023.4
20260905061019 70 161 0.0 1.7 0.00 0.00 0.00 56 1023.4
20260905060017 70 0.0 0.0 0.00 0.00 0.00 56 1023.3
20260905055015 71 0.0 0.0 0.00 0.00 0.00 55 1023.3
20260905054035 71 142 0.0 1.7 0.00 0.00 0.00 55 1023.2
20260905053015 71 139 0.9 3.5 0.00 0.00 0.00 54 1023.0
20260905052016 72 136 0.0 0.9 0.00 0.00 0.00 53 1023.1
20260905051016 73 152 0.0 1.7 0.00 0.00 0.00 51 1023.0
20260905050016 74 144 0.9 3.5 0.00 0.00 0.00 50 1023.0
20260905045037 75 143 0.0 1.7 0.00 0.00 0.00 48 1022.8
20260905044015 76 141 1.7 6.1 0.00 0.00 0.00 47 1022.8
20260905043015 76 136 2.6 7.8 0.00 0.00 0.00 46 1022.6
20260905042015 77 133 1.7 7.8 0.00 0.00 0.00 45 1022.6
20260905041056 77 133 2.6 11.3 0.00 0.00 0.00 43 1022.7
20260905040016 77 140 3.5 7.8 0.00 0.00 0.00 42 1022.6
20260905035017 77 132 2.6 7.0 0.00 0.00 0.00 42 1022.5
20260905034017 77 127 1.7 5.2 0.00 0.00 0.00 43 1022.5
20260905033035 77 125 1.7 3.5 0.00 0.00 0.00 43 1022.4
20260905032015 78 107 0.9 3.5 0.00 0.00 0.00 41 1022.4
20260905031016 78 123 1.7 3.5 0.00 0.00 0.00 40 1022.3
20260905030036 78 128 1.7 7.0 0.00 0.00 0.00 40 1022.2
20260905025016 77 114 0.9 2.6 0.00 0.00 0.00 41 1022.1
20260905024037 77 119 0.9 5.2 0.00 0.00 0.00 40 1022.0
20260905023015 78 110 1.7 7.0 0.00 0.00 0.00 38 1022.0
20260905022015 78 98 0.9 3.5 0.00 0.00 0.00 38 1021.8
20260905021015 79 115 0.9 3.5 0.00 0.00 0.00 38 1021.7
20260905020016 79 104 0.9 2.6 0.00 0.00 0.00 37 1021.6
20260905015016 79 115 1.7 3.5 0.00 0.00 0.00 36 1021.4
20260905014017 80 138 3.5 10.4 0.00 0.00 0.00 35 1021.6
20260905013017 80 134 2.6 7.0 0.00 0.00 0.00 36 1021.4
20260905012015 82 137 2.6 12.2 0.00 0.00 0.00 36 1021.5
20260905011015 83 120 1.7 5.2 0.00 0.00 0.00 32 1021.3
20260905010015 84 94 0.9 2.6 0.00 0.00 0.00 32 1021.1
20260905005016 84 89 0.9 2.6 0.00 0.00 0.00 31 1021.1
20260905004016 85 92 0.9 2.6 0.00 0.00 0.00 31 1021.1
20260905003017 86 91 0.9 2.6 0.00 0.00 0.00 30 1021.0
20260905002017 86 85 1.7 3.5 0.00 0.00 0.00 29 1021.0
20260905001015 87 93 1.7 3.5 0.00 0.00 0.00 29 1021.0
20260905000015 88 101 1.7 3.5 0.00 0.00 0.00 28 1020.9
20260904235016 89 111 0.9 2.6 0.00 0.00 0.00 27 1020.7
20260904234016 89 94 0.9 1.7 0.00 0.00 0.00 28 1020.6
20260904233016 89 90 0.9 2.6 0.00 0.00 0.00 27 1020.7
20260904232017 90 92 0.9 1.7 0.00 0.00 0.00 28 1020.7
20260904231037 90 85 0.0 0.9 0.00 0.00 0.00 27 1020.7
20260904230015 90 94 0.9 1.7 0.00 0.00 0.00 27 1020.8
20260904225015 90 97 0.9 2.6 0.00 0.00 0.00 28 1020.8
20260904224036 89 279 0.9 1.7 0.00 0.00 0.00 28 1020.8
20260904223016 89 89 0.9 2.6 0.00 0.00 0.00 28 1020.8
20260904222036 91 86 0.9 3.5 0.00 0.00 0.00 27 1020.9
20260904221017 90 96 0.9 2.6 0.00 0.00 0.00 27 1020.9
20260904220017 90 87 0.9 2.6 0.00 0.00 0.00 26 1021.1
20260904215015 91 79 1.7 3.5 0.00 0.00 0.00 26 1021.1
20260904214035 91 101 0.9 1.7 0.00 0.00 0.00 26 1021.3
20260904213056 90 94 0.9 1.7 0.00 0.00 0.00 26 1021.4
20260904212036 89 86 0.9 3.5 0.00 0.00 0.00 27 1021.4
20260904211016 89 92 0.0 1.7 0.00 0.00 0.00 26 1021.5